Location: Unspecified
(0.0000°N, 0.0000°E)
Time: 12:02:18
(UTC+00:00)

KAITUO 1B - Visible Passes

Search period start: 16 July 2019 00:00
Search period end: 26 July 2019 00:00
Orbit: 495 x 518 km, 97.4° (Epoch: 16 July)

Date Brightness Start Highest point End Pass type
(mag) Time Alt. Az. Time Alt. Az. Time Alt. Az.
17 Jul ? 05:32:41 10° NE 05:36:00 31° E 05:39:22 10° SSE visible
18 Jul ? 05:16:05 10° ENE 05:18:33 17° ESE 05:21:02 10° SE visible
18 Jul ? 18:41:01 10° SW 18:43:33 18° WSW 18:46:04 10° WNW visible
22 Jul ? 05:38:43 10° NNE 05:42:14 40° ESE 05:45:46 10° S visible
23 Jul ? 05:21:52 10° NE 05:24:45 21° ESE 05:27:39 10° SSE visible
23 Jul ? 18:47:45 10° SW 18:49:45 14° WSW 18:51:43 10° WNW visible
24 Jul ? 05:06:01 10° E 05:07:17 11° ESE 05:08:33 10° ESE visible
24 Jul ? 18:29:08 10° SSW 18:32:16 26° W 18:35:21 10° NW visible
